[[{"header":{"parameterUnit":"m.s-1","parameterCategory":1,"la1":30.2991,"la2":30.254,"lo1":-89.0895,"lo2":-89.0444,"dy":0.0017,"dx":0.0017,"nx":28,"ny":28,"refTime":"2025-06-08T09:00:00:Z","depth":0,"parameterNumber":2,"parameterNumberName":"U-component_of_WINDS"},"data":[0,0,0,0,0,0,0,0,0,0,0,0,0,0,0,0,0,0,0,0,0,0,0,0,0,0,0,0,0,0,0,0,0,0,0,0,0,0,0,0,0,0,0,0,0,0,0,0,0,0,0,0,0,0,0,0,0,0,3.9875,3.9876,0,3.9976,3.9977,3.9978,3.9996,3.9995,3.9994,3.9993,4.01,4.0103,4.0107,0,0,0,0,0,0,0,0,0,0,0,0,0,3.9702,3.9705,3.9875,3.9876,3.9877,3.9975,3.9977,3.9978,3.9996,3.9995,3.9994,3.9993,4.0098,4.0103,4.0107,0,0,0,0,0,0,0,0,0,0,0,0,0,3.9787,3.9706,3.9875,3.9898,3.9901,3.9975,3.9977,3.9979,3.9996,3.9995,3.9994,3.9992,4.0097,4.0102,4.0108,4.0167,0,0,4.0124,4.0127,0,0,0,0,0,0,0,0,3.9782,3.9794,3.9893,3.9896,3.99,3.9972,3.9955,4.0042,3.9996,3.996,3.9993,3.9992,4.0058,4.0067,4.0089,4.0172,4.0176,4.0125,4.0128,4.013,4.0132,0,0,0,0,0,0,0,3.9776,3.9789,3.9915,3.9895,3.9899,3.9905,3.9915,3.9971,4.0015,3.9963,3.9965,3.9976,4.006,4.0083,4.0091,4.0178,4.0125,4.0129,4.0133,4.0135,4.0316,4.0317,0,0,0,0,0,0,3.9766,3.9784,3.9912,3.9918,3.9837,3.9909,3.9921,3.995,4.0015,4.0023,3.9977,3.9977,4.0075,4.0085,4.0095,4.0169,4.013,4.0135,4.0139,4.0314,4.0316,4.0318,0,0,0,0,0,0,3.9762,3.9777,3.9908,3.9852,3.9869,3.9913,3.9946,3.9953,3.9976,4.0025,4.0033,3.9993,4.0074,4.0087,4.0149,4.0173,4.0138,4.0143,4.0312,4.0315,4.0317,4.0316,0,0,0,0,0,0,3.9757,3.9776,3.9797,3.9852,3.9871,3.9958,3.9947,3.9956,3.9985,3.9985,4.0042,4.005,4.0074,4.0141,4.0154,4.018,4.0147,4.031,4.0313,4.0316,4.0314,4.0318,4.0322,0,0,0,0,0,3.9751,3.9793,3.9798,3.9813,3.9899,3.9959,3.9971,3.9997,3.9987,4.001,4.0042,4.0048,4.0168,4.0147,4.0162,4.019,4.0309,4.0313,4.0316,4.0313,4.0317,4.0321,0,0,0,0,0,0,3.9741,3.9801,3.9807,3.9868,3.9909,3.9962,3.9992,4.0001,4.0045,4.0044,4.0075,4.0088,4.0148,4.0175,4.015,4.0251,4.0238,4.0245,4.023,4.0235,4.0239,4.0231,4.0152,0,0,0,0,0,3.9746,3.9788,3.9839,3.9889,3.9908,3.9947,3.9974,3.999,4.0034,4.0051,4.0087,4.013,4.0178,4.0208,4.0254,4.0319,4.0332,4.0346,4.0349,4.0352,4.0357,4.0394,4.0401,4.0329,4.0329,4.0329,0,0,3.9756,3.9795,3.982,3.9888,3.9921,3.9965,3.9961,4.0008,4.0042,4.0059,4.0118,4.0147,4.0197,4.026,4.029,4.0285,4.038,4.0356,4.0358,4.0362,4.0398,4.0405,4.0411,4.0331,4.0331,4.0331,0,0,3.9798,3.9831,3.9876,3.991,3.996,3.9985,3.9996,4.0049,4.0069,4.0129,4.0143,4.0184,4.0265,4.03,4.0329,4.0387,4.0395,4.0401,4.042,4.0455,4.0461,4.0466,4.0487,4.0494,4.0406,4.0406,4.0406,0,3.9805,3.9872,3.9899,3.9945,3.9975,3.9992,4.0039,4.0071,4.0134,4.0155,4.0148,4.0251,4.0286,4.0358,4.0372,4.0394,4.0408,4.0394,4.0458,4.0463,4.0469,4.0489,4.0496,4.0407,4.0407,4.0407,4.0407,0,3.9878,3.9925,3.9955,4.0015,4.0049,4.0095,4.013,4.0162,4.0176,4.0202,4.0265,4.0307,4.0363,4.0382,4.0396,4.0457,4.0452,4.0451,4.0439,4.0475,4.0495,4.0503,4.0407,4.0407,4.0407,4.0407,0,0,3.9915,3.999,4.0001,4.0029,4.0086,4.0123,4.0172,4.0225,4.0252,4.0295,4.0337,4.0406,4.0406,4.0439,4.0458,4.0489,4.0532,4.0485,4.0487,4.0492,4.0602,4.0601,4.061,4.0539,4.054,4.0542,4.0598,0,3.9964,4.0049,4.0075,4.0147,4.019,4.0208,4.0251,4.0291,4.0318,4.036,4.0391,4.0439,4.0435,4.0455,4.0487,4.052,4.0555,4.0517,4.0579,4.058,4.0564,4.062,4.0619,4.067,4.0605,4.0607,4.0608,0,4.0031,4.0075,4.0151,4.0204,4.0224,4.0261,4.0313,4.0353,4.04,4.0418,4.0454,4.0471,4.0524,4.0509,4.0583,4.0556,4.0584,4.0604,4.0607,4.0613,4.0595,4.0627,4.0687,4.0694,4.062,4.0619,4.0618,0,4.005,4.0129,4.0185,4.0208,4.0272,4.0297,4.0325,4.0371,4.0402,4.0449,4.0469,4.0521,4.055,4.059,4.0621,4.0608,4.0692,4.068,4.0709,4.0708,4.0725,4.0723,4.0789,4.0744,4.0744,4.0743,4.0743,0,4.0101,4.0147,4.0194,4.0228,4.0281,4.0312,4.0363,4.0392,4.0433,4.0474,4.0494,4.0532,4.0571,4.0615,4.064,4.0698,4.0711,4.0727,4.0733,4.0725,4.0722,4.0742,4.0739,4.0745,4.0745,4.0745,4.0744,0,4.013,4.0164,4.0226,4.0281,4.0296,4.0332,4.038,4.0415,4.0443,4.0495,4.0509,4.0554,4.0607,4.0642,4.071,4.0727,4.079,4.0795,4.0773,4.0776,4.0802,4.0799,4.0882,4.0895,4.0842,4.0842,4.0842,0,4.016,4.0196,4.0255,4.0284,4.0311,4.0357,4.0389,4.0422,4.0454,4.0512,4.054,4.0594,4.0639,4.0723,4.0763,4.0815,4.0822,4.0848,4.083,4.0821,4.0822,4.0819,4.0823,4.085,4.085,4.0851,4.0851,0,4.0209,4.0225,4.0269,4.032,4.0357,4.0399,4.0441,4.0464,4.0504,4.054,4.0594,4.0629,4.0699,4.0753,4.0809,4.084,4.0852,4.0856,4.0866,4.0857,4.0843,4.0851,4.078,4.0854,4.0854,4.0854,4.0853,4.0853,4.024,4.0273,4.032,4.0369,4.0404,4.0443,4.0479,4.0512,4.0557,4.0615,4.0633,4.0689,4.0737,4.0814,4.0846,4.0891,4.0889,4.0902,4.0906,4.0908,4.0908,4.0836,4.0902,4.0902,4.0902,4.0902,4.0902,0,4.029,4.0321,4.0367,4.0425,4.0464,4.0472,4.052,4.0552,4.0602,4.0645,4.0689,4.0752,4.0805,4.0849,4.0904,4.0932,4.0939,4.0945,4.0943,4.095,4.0907,4.0894,4.0938,4.0938,4.0938,4.0938,4.0938,4.0938,4.032,4.0376,4.0397,4.0472,4.0503,4.0558,4.0584,4.0621,4.0656,4.0725,4.0769,4.0797,4.0841,4.09,4.0949,4.0961,4.098,4.0984,4.0997,4.0957,4.0953,4.0949,4.0936,4.0988,4.0989,4.1036,4.1036,4.1037]},{"header":{"parameterUnit":"m.s-1","parameterCategory":1,"la1":30.2991,"la2":30.254,"lo1":-89.0895,"lo2":-89.0444,"dy":0.0017,"dx":0.0017,"nx":28,"ny":28,"refTime":"2025-06-08T09:00:00:Z","depth":0,"parameterNumber":3,"parameterNumberName":"V-component_of_WINDS"},"data":[0,0,0,0,0,0,0,0,0,0,0,0,0,0,0,0,0,0,0,0,0,0,0,0,0,0,0,0,0,0,0,0,0,0,0,0,0,0,0,0,0,0,0,0,0,0,0,0,0,0,0,0,0,0,0,0,0,0,3.4721,3.4722,0,3.4841,3.4843,3.4844,3.4869,3.4868,3.4867,3.4866,3.4985,3.4989,3.4993,0,0,0,0,0,0,0,0,0,0,0,0,0,3.4507,3.4511,3.4721,3.4722,3.4724,3.4841,3.4843,3.4844,3.4869,3.4868,3.4867,3.4866,3.4984,3.4988,3.4993,0,0,0,0,0,0,0,0,0,0,0,0,0,3.4611,3.4512,3.472,3.475,3.4754,3.4841,3.4843,3.4845,3.4869,3.4868,3.4867,3.4865,3.4982,3.4988,3.4994,3.5057,0,0,3.5012,3.5015,0,0,0,0,0,0,0,0,3.4605,3.4619,3.4745,3.4749,3.4753,3.4839,3.4811,3.4916,3.487,3.4826,3.4866,3.4865,3.4937,3.4947,3.4972,3.5063,3.5068,3.5013,3.5016,3.5019,3.502,0,0,0,0,0,0,0,3.4598,3.4613,3.4768,3.4746,3.4752,3.4756,3.4769,3.4831,3.4887,3.4829,3.4831,3.4846,3.4939,3.4966,3.4975,3.507,3.5012,3.5018,3.5021,3.5024,3.5217,3.5218,0,0,0,0,0,0,3.4586,3.4607,3.4764,3.4772,3.4674,3.4761,3.4776,3.4813,3.4887,3.4897,3.4847,3.4846,3.4957,3.4968,3.4979,3.5057,3.5019,3.5024,3.5028,3.5215,3.5217,3.5219,0,0,0,0,0,0,3.4581,3.46,3.476,3.469,3.4711,3.4766,3.4807,3.4816,3.4843,3.49,3.4909,3.4864,3.4956,3.4971,3.5038,3.5062,3.5027,3.5032,3.5213,3.5216,3.5218,3.5215,0,0,0,0,0,0,3.4575,3.4598,3.4624,3.4691,3.4715,3.4818,3.4809,3.4819,3.4854,3.4854,3.4919,3.4928,3.4956,3.5029,3.5044,3.5069,3.5037,3.5211,3.5214,3.5217,3.5213,3.5217,3.522,0,0,0,0,0,3.4567,3.4618,3.4625,3.4644,3.4749,3.4819,3.4833,3.4865,3.4856,3.4881,3.4917,3.4926,3.5057,3.5035,3.5052,3.508,3.521,3.5214,3.5217,3.5211,3.5216,3.522,0,0,0,0,0,0,3.4551,3.4627,3.4636,3.471,3.4758,3.4823,3.4857,3.4869,3.492,3.4918,3.4955,3.4969,3.5033,3.5064,3.5038,3.5145,3.5133,3.514,3.5123,3.5128,3.5131,3.5122,3.5042,0,0,0,0,0,3.4556,3.4608,3.4672,3.473,3.4754,3.4801,3.4833,3.4854,3.4905,3.4925,3.4966,3.5013,3.5065,3.5098,3.5149,3.5218,3.5231,3.5245,3.5249,3.5251,3.5257,3.5294,3.53,3.523,3.523,3.523,0,0,3.4567,3.4615,3.4645,3.4728,3.4768,3.482,3.4818,3.4873,3.4911,3.4932,3.4998,3.503,3.5085,3.5153,3.5185,3.518,3.5279,3.5256,3.5257,3.5261,3.5298,3.5304,3.531,3.5233,3.5232,3.5232,0,0,3.4613,3.4655,3.4708,3.4748,3.4809,3.484,3.4852,3.4916,3.4938,3.5005,3.5021,3.5066,3.5155,3.5193,3.5224,3.5283,3.5293,3.5299,3.5317,3.5352,3.5358,3.5363,3.5383,3.5389,3.5304,3.5304,3.5304,0,3.4618,3.4698,3.4733,3.4788,3.4823,3.4846,3.4899,3.4935,3.5008,3.5031,3.5026,3.5137,3.5175,3.5252,3.5266,3.5291,3.5305,3.5291,3.5355,3.536,3.5365,3.5384,3.5392,3.5304,3.5304,3.5304,3.5304,0,3.4701,3.4756,3.4791,3.4863,3.4902,3.4955,3.4997,3.5032,3.5049,3.508,3.5146,3.5194,3.5254,3.5274,3.5291,3.5352,3.5347,3.5348,3.5336,3.5371,3.539,3.5398,3.5305,3.5305,3.5305,3.5305,0,0,3.4739,3.483,3.4842,3.4874,3.4942,3.4985,3.5038,3.5099,3.5127,3.5176,3.5221,3.5295,3.5296,3.5331,3.5352,3.5383,3.5425,3.538,3.5382,3.5386,3.5494,3.5493,3.5501,3.5432,3.5434,3.5435,3.5489,0,3.4792,3.4891,3.4923,3.5004,3.5054,3.5076,3.5123,3.5168,3.5198,3.5244,3.5276,3.5328,3.5325,3.5346,3.5379,3.5414,3.5447,3.541,3.5472,3.5474,3.5457,3.5511,3.551,3.5558,3.5497,3.5498,3.5499,0,3.4867,3.4919,3.5005,3.5066,3.5088,3.513,3.5187,3.5231,3.5282,3.5302,3.5341,3.536,3.5414,3.54,3.5474,3.5448,3.5475,3.5496,3.5499,3.5505,3.5488,3.5517,3.5575,3.5582,3.5511,3.551,3.5509,0,3.4885,3.4976,3.5039,3.5066,3.5139,3.5168,3.5199,3.5249,3.5283,3.5332,3.5354,3.5409,3.5438,3.5479,3.5511,3.5498,3.5582,3.5571,3.5598,3.5597,3.5614,3.5613,3.5676,3.5633,3.5633,3.5633,3.5633,0,3.494,3.4991,3.5048,3.5087,3.5144,3.5181,3.5236,3.5268,3.5313,3.5357,3.5379,3.5419,3.5459,3.5504,3.553,3.5586,3.56,3.5616,3.5621,3.5613,3.5611,3.5631,3.5628,3.5635,3.5635,3.5634,3.5634,0,3.4969,3.501,3.508,3.5143,3.516,3.52,3.5253,3.5291,3.5321,3.5376,3.5391,3.5439,3.5493,3.5529,3.5598,3.5615,3.5676,3.5682,3.5659,3.5662,3.5687,3.5684,3.5765,3.5776,3.5726,3.5727,3.5727,0,3.5001,3.5042,3.511,3.5142,3.5174,3.5224,3.5259,3.5296,3.5331,3.5392,3.5421,3.5477,3.5524,3.5609,3.5648,3.57,3.5707,3.5732,3.5715,3.5705,3.5706,3.5703,3.5706,3.5734,3.5734,3.5734,3.5735,0,3.5053,3.5071,3.5122,3.5179,3.522,3.5266,3.5313,3.5337,3.5382,3.5419,3.5476,3.5512,3.5582,3.5637,3.5693,3.5723,3.5735,3.574,3.5749,3.574,3.5725,3.5732,3.5665,3.5738,3.5737,3.5737,3.5737,3.5737,3.5084,3.5121,3.5174,3.5229,3.5268,3.5311,3.5349,3.5385,3.5433,3.5495,3.5513,3.5571,3.562,3.5697,3.5728,3.5772,3.577,3.5783,3.5786,3.5788,3.5788,3.5719,3.5783,3.5782,3.5782,3.5782,3.5782,0,3.5136,3.5172,3.5223,3.5287,3.533,3.534,3.5392,3.5426,3.5478,3.5523,3.5569,3.5633,3.5685,3.5729,3.5783,3.581,3.5817,3.5823,3.5821,3.5827,3.5788,3.5774,3.5816,3.5816,3.5816,3.5816,3.5816,3.5816,3.5169,3.523,3.5254,3.5335,3.537,3.5428,3.5457,3.5495,3.5532,3.5603,3.5647,3.5676,3.5721,3.5778,3.5826,3.5837,3.5855,3.586,3.5872,3.5834,3.583,3.5826,3.5814,3.5864,3.5864,3.5908,3.5908,3.5909]}]]